Time,TemperatureF,DewpointF,PressureIn,WindDirection,WindDirectionDegrees,WindSpeedMPH,WindSpeedGustMPH,Humidity,HourlyPrecipIn,Conditions,Clouds,dailyrainin,SoftwareType,DateUTC
2013-12-04 00:01:00,50.5,47.5,30.02,ESE,121,0.0,3.0,89,0.01,,,0.01,meteohub,2013-12-04 05:01:00,
2013-12-04 00:02:00,50.5,47.5,30.02,ESE,121,2.0,3.0,89,0.01,,,0.01,meteohub,2013-12-04 05:02:00,
2013-12-04 00:05:00,50.5,47.5,30.01,ESE,121,1.0,3.0,89,0.01,,,0.00,meteohub,2013-12-04 05:05:00,
2013-12-04 00:10:00,50.7,47.7,30.01,ESE,121,2.0,3.0,89,0.01,,,0.00,meteohub,2013-12-04 05:10:00,
2013-12-04 00:15:00,50.7,47.7,30.01,ESE,121,2.0,3.0,89,0.01,,,0.00,meteohub,2013-12-04 05:15:00,
2013-12-04 00:21:00,50.7,47.7,30.01,SE,130,4.0,4.0,89,0.01,,,0.00,meteohub,2013-12-04 05:21:00,
2013-12-04 00:26:00,50.7,47.3,30.01,SE,128,1.0,4.0,88,0.01,,,0.00,meteohub,2013-12-04 05:26:00,
2013-12-04 00:31:00,50.7,47.3,30.01,ESE,119,1.0,4.0,88,0.00,,,0.00,meteohub,2013-12-04 05:31:00,
2013-12-04 00:36:00,50.9,47.5,30.01,ESE,119,1.0,4.0,88,0.00,,,0.00,meteohub,2013-12-04 05:36:00,
2013-12-04 00:42:00,50.9,47.5,30.00,ESE,119,2.0,3.0,88,0.00,,,0.00,meteohub,2013-12-04 05:42:00,
2013-12-04 00:47:00,50.9,47.5,30.00,ESE,119,0.0,3.0,88,0.00,,,0.00,meteohub,2013-12-04 05:47:00,
2013-12-04 00:52:00,50.9,47.5,30.00,ESE,119,1.0,3.0,88,0.00,,,0.00,meteohub,2013-12-04 05:52:00,
2013-12-04 00:57:00,50.9,47.5,30.00,ESE,119,2.0,2.0,88,0.00,,,0.00,meteohub,2013-12-04 05:57:00,
2013-12-04 01:02:00,50.9,47.5,30.00,ESE,119,1.0,2.0,88,0.00,,,0.00,meteohub,2013-12-04 06:02:00,
2013-12-04 01:07:00,50.7,47.3,30.00,SE,136,1.0,4.0,88,0.00,,,0.00,meteohub,2013-12-04 06:07:00,
2013-12-04 01:12:00,50.7,47.3,30.00,SE,132,0.0,4.0,88,0.00,,,0.00,meteohub,2013-12-04 06:12:00,
2013-12-04 01:17:00,50.5,47.1,30.00,SE,132,1.0,4.0,88,0.00,,,0.00,meteohub,2013-12-04 06:17:00,
2013-12-04 01:22:00,50.5,46.8,30.00,SE,132,2.0,3.0,87,0.00,,,0.00,meteohub,2013-12-04 06:22:00,
2013-12-04 01:27:00,50.5,46.8,30.00,SE,130,1.0,3.0,87,0.00,,,0.00,meteohub,2013-12-04 06:27:00,
2013-12-04 01:32:00,50.5,46.8,30.01,SE,130,0.0,3.0,87,0.00,,,0.00,meteohub,2013-12-04 06:32:00,
2013-12-04 01:37:00,50.4,46.9,30.01,SE,130,1.0,3.0,88,0.00,,,0.00,meteohub,2013-12-04 06:37:00,
2013-12-04 01:42:00,50.4,46.9,30.01,SE,130,1.0,2.0,88,0.00,,,0.00,meteohub,2013-12-04 06:42:00,
2013-12-04 01:47:00,50.4,46.9,30.01,ESE,111,2.0,2.0,88,0.00,,,0.00,meteohub,2013-12-04 06:47:00,
2013-12-04 01:52:00,50.4,46.9,30.01,ESE,119,3.0,4.0,88,0.00,,,0.00,meteohub,2013-12-04 06:52:00,
2013-12-04 01:57:00,50.4,46.9,30.01,ESE,109,2.0,4.0,88,0.00,,,0.00,meteohub,2013-12-04 06:57:00,
2013-12-04 02:02:00,50.5,46.8,30.01,SE,124,1.0,4.0,87,0.00,,,0.00,meteohub,2013-12-04 07:02:00,
2013-12-04 02:07:00,50.7,46.9,30.01,SE,125,2.0,4.0,87,0.00,,,0.00,meteohub,2013-12-04 07:07:00,
2013-12-04 02:12:00,50.9,47.1,30.01,ESE,107,0.0,4.0,87,0.00,,,0.00,meteohub,2013-12-04 07:12:00,
2013-12-04 02:17:00,51.1,47.1,30.02,ESE,107,3.0,3.0,86,0.00,,,0.00,meteohub,2013-12-04 07:17:00,
2013-12-04 02:22:00,51.1,47.1,30.02,ESE,107,2.0,3.0,86,0.00,,,0.00,meteohub,2013-12-04 07:22:00,
2013-12-04 02:27:00,51.1,47.1,30.02,ESE,107,2.0,3.0,86,0.00,,,0.00,meteohub,2013-12-04 07:27:00,
2013-12-04 02:32:00,51.3,47.3,30.02,ESE,107,1.0,3.0,86,0.00,,,0.00,meteohub,2013-12-04 07:32:00,
2013-12-04 02:37:00,51.3,47.3,30.02,ESE,107,1.0,2.0,86,0.00,,,0.00,meteohub,2013-12-04 07:37:00,
2013-12-04 02:42:00,51.3,47.3,30.02,ESE,107,0.0,3.0,86,0.00,,,0.00,meteohub,2013-12-04 07:42:00,
2013-12-04 02:47:00,51.3,47.3,30.03,ESE,107,1.0,3.0,86,0.00,,,0.00,meteohub,2013-12-04 07:47:00,
2013-12-04 02:52:00,51.4,47.5,30.03,ESE,107,2.0,2.0,86,0.00,,,0.00,meteohub,2013-12-04 07:52:00,
2013-12-04 02:57:00,51.4,47.1,30.03,SE,124,1.0,3.0,85,0.00,,,0.00,meteohub,2013-12-04 07:57:00,
2013-12-04 03:02:00,51.4,47.1,30.02,SE,132,3.0,3.0,85,0.00,,,0.00,meteohub,2013-12-04 08:02:00,
2013-12-04 03:07:00,51.4,47.1,30.02,SE,124,2.0,4.0,85,0.00,,,0.00,meteohub,2013-12-04 08:07:00,
2013-12-04 03:12:00,51.4,47.1,30.02,ESE,113,3.0,4.0,85,0.00,,,0.00,meteohub,2013-12-04 08:12:00,
2013-12-04 03:17:00,51.6,47.3,30.03,ESE,118,3.0,4.0,85,0.00,,,0.00,meteohub,2013-12-04 08:17:00,
2013-12-04 03:22:00,51.6,47.5,30.03,SE,143,2.0,5.0,86,0.00,,,0.00,meteohub,2013-12-04 08:22:00,
2013-12-04 03:27:00,51.4,47.5,30.03,SE,130,2.0,5.0,86,0.00,,,0.00,meteohub,2013-12-04 08:27:00,
2013-12-04 03:32:00,51.4,47.5,30.03,ESE,114,3.0,5.0,86,0.00,,,0.00,meteohub,2013-12-04 08:32:00,
2013-12-04 03:37:00,51.4,47.5,30.02,SE,131,3.0,5.0,86,0.00,,,0.00,meteohub,2013-12-04 08:37:00,
2013-12-04 03:42:00,51.4,47.5,30.02,SE,138,2.0,5.0,86,0.00,,,0.00,meteohub,2013-12-04 08:42:00,
2013-12-04 03:47:00,51.4,47.5,30.02,SSE,148,2.0,5.0,86,0.00,,,0.00,meteohub,2013-12-04 08:47:00,
2013-12-04 03:52:00,51.4,47.5,30.02,SSE,165,2.0,5.0,86,0.00,,,0.00,meteohub,2013-12-04 08:52:00,
2013-12-04 03:57:00,51.4,47.7,30.02,SSE,153,2.0,5.0,87,0.00,,,0.00,meteohub,2013-12-04 08:57:00,
2013-12-04 04:02:00,51.3,47.5,30.02,SE,144,3.0,4.0,87,0.00,,,0.00,meteohub,2013-12-04 09:02:00,
2013-12-04 04:07:00,51.3,47.5,30.02,SSE,153,1.0,3.0,87,0.00,,,0.00,meteohub,2013-12-04 09:07:00,
2013-12-04 04:12:00,51.1,47.7,30.02,SE,124,2.0,3.0,88,0.00,,,0.00,meteohub,2013-12-04 09:12:00,
2013-12-04 04:17:00,51.1,47.7,30.02,ESE,111,3.0,5.0,88,0.00,,,0.00,meteohub,2013-12-04 09:17:00,
2013-12-04 04:22:00,51.1,47.7,30.02,ESE,113,3.0,5.0,88,0.00,,,0.00,meteohub,2013-12-04 09:22:00,
2013-12-04 04:27:00,51.1,47.7,30.02,SE,137,0.0,5.0,88,0.00,,,0.00,meteohub,2013-12-04 09:27:00,
2013-12-04 04:32:00,51.1,47.7,30.02,SE,136,2.0,5.0,88,0.00,,,0.00,meteohub,2013-12-04 09:32:00,
2013-12-04 04:37:00,51.1,47.7,30.01,SSE,163,1.0,4.0,88,0.00,,,0.00,meteohub,2013-12-04 09:37:00,
2013-12-04 04:42:00,51.1,48.0,30.02,SE,138,0.0,3.0,89,0.00,,,0.00,meteohub,2013-12-04 09:42:00,
2013-12-04 04:47:00,51.3,48.2,30.02,SE,138,0.0,3.0,89,0.00,,,0.00,meteohub,2013-12-04 09:47:00,
2013-12-04 04:52:00,51.3,48.2,30.02,SE,138,1.0,2.0,89,0.00,,,0.00,meteohub,2013-12-04 09:52:00,
2013-12-04 04:57:00,51.3,48.2,30.02,SE,138,0.0,2.0,89,0.00,,,0.00,meteohub,2013-12-04 09:57:00,
2013-12-04 05:02:00,51.3,48.2,30.02,SE,138,0.0,2.0,89,0.00,,,0.00,meteohub,2013-12-04 10:02:00,
2013-12-04 05:07:00,51.3,48.2,30.02,SE,138,1.0,2.0,89,0.00,,,0.00,meteohub,2013-12-04 10:07:00,
2013-12-04 05:12:00,51.1,48.0,30.02,SE,138,0.0,3.0,89,0.00,,,0.00,meteohub,2013-12-04 10:12:00,
2013-12-04 05:17:00,51.1,48.0,30.02,SE,138,0.0,3.0,89,0.00,,,0.00,meteohub,2013-12-04 10:17:00,
2013-12-04 05:22:00,51.1,48.2,30.02,SE,138,2.0,3.0,90,0.00,,,0.00,meteohub,2013-12-04 10:22:00,
2013-12-04 05:27:00,51.1,48.2,30.02,ESE,121,1.0,2.0,90,0.00,,,0.00,meteohub,2013-12-04 10:27:00,
2013-12-04 05:32:00,51.1,48.6,30.02,ESE,121,1.0,2.0,91,0.00,,,0.00,meteohub,2013-12-04 10:32:00,
2013-12-04 05:37:00,51.1,48.6,30.03,ESE,121,0.0,2.0,91,0.00,,,0.00,meteohub,2013-12-04 10:37:00,
2013-12-04 05:42:00,51.1,48.6,30.03,ESE,121,1.0,2.0,91,0.00,,,0.00,meteohub,2013-12-04 10:42:00,
2013-12-04 05:47:00,51.3,48.7,30.03,ESE,121,1.0,1.0,91,0.00,,,0.00,meteohub,2013-12-04 10:47:00,
2013-12-04 05:52:00,51.3,48.7,30.03,ESE,121,0.0,2.0,91,0.00,,,0.00,meteohub,2013-12-04 10:52:00,
2013-12-04 05:57:00,51.3,48.7,30.03,ESE,121,1.0,2.0,91,0.00,,,0.00,meteohub,2013-12-04 10:57:00,
2013-12-04 06:02:00,51.1,48.6,30.03,ESE,121,0.0,2.0,91,0.00,,,0.00,meteohub,2013-12-04 11:02:00,
2013-12-04 06:07:00,51.3,48.7,30.03,ESE,121,0.0,2.0,91,0.00,,,0.00,meteohub,2013-12-04 11:07:00,
2013-12-04 06:12:00,51.3,48.7,30.03,ESE,111,2.0,2.0,91,0.00,,,0.00,meteohub,2013-12-04 11:12:00,
2013-12-04 06:17:00,51.3,49.1,30.03,ESE,111,0.0,2.0,92,0.00,,,0.00,meteohub,2013-12-04 11:17:00,
2013-12-04 06:22:00,51.3,49.1,30.03,ESE,111,0.0,2.0,92,0.00,,,0.00,meteohub,2013-12-04 11:22:00,
2013-12-04 06:27:00,51.3,49.1,30.03,ESE,107,2.0,2.0,92,0.00,,,0.00,meteohub,2013-12-04 11:27:00,
2013-12-04 06:32:00,51.3,49.1,30.03,ESE,116,0.0,3.0,92,0.00,,,0.00,meteohub,2013-12-04 11:32:00,
2013-12-04 06:37:00,51.1,48.9,30.03,ESE,119,2.0,3.0,92,0.00,,,0.00,meteohub,2013-12-04 11:37:00,
2013-12-04 06:42:00,51.1,48.9,30.04,SE,126,1.0,3.0,92,0.00,,,0.00,meteohub,2013-12-04 11:42:00,
2013-12-04 06:47:00,51.1,48.9,30.04,SE,127,1.0,3.0,92,0.00,,,0.00,meteohub,2013-12-04 11:47:00,
2013-12-04 06:52:00,51.1,48.9,30.04,ESE,121,3.0,3.0,92,0.00,,,0.00,meteohub,2013-12-04 11:52:00,
2013-12-04 06:57:00,51.1,48.9,30.04,ESE,121,3.0,4.0,92,0.00,,,0.00,meteohub,2013-12-04 11:57:00,
2013-12-04 07:02:00,51.1,49.1,30.04,SE,130,3.0,5.0,93,0.00,,,0.00,meteohub,2013-12-04 12:02:00,
2013-12-04 07:07:00,51.1,49.1,30.04,SE,137,1.0,5.0,93,0.00,,,0.00,meteohub,2013-12-04 12:07:00,
2013-12-04 07:12:00,51.1,49.1,30.04,ESE,109,3.0,5.0,93,0.00,,,0.00,meteohub,2013-12-04 12:12:00,
2013-12-04 07:17:00,50.9,48.9,30.04,SE,128,2.0,5.0,93,0.00,,,0.00,meteohub,2013-12-04 12:17:00,
2013-12-04 07:22:00,50.9,49.3,30.04,SE,128,0.0,4.0,94,0.00,,,0.00,meteohub,2013-12-04 12:22:00,
2013-12-04 07:27:00,50.7,49.1,30.04,ESE,119,2.0,4.0,94,0.00,,,0.00,meteohub,2013-12-04 12:27:00,
2013-12-04 07:32:00,50.7,49.1,30.05,ESE,122,0.0,3.0,94,0.00,,,0.00,meteohub,2013-12-04 12:32:00,
2013-12-04 07:37:00,50.9,49.3,30.05,ESE,122,0.0,3.0,94,0.00,,,0.00,meteohub,2013-12-04 12:37:00,
2013-12-04 07:42:00,51.1,49.5,30.05,ESE,116,2.0,2.0,94,0.00,,,0.00,meteohub,2013-12-04 12:42:00,
2013-12-04 07:47:00,51.1,49.6,30.05,ESE,120,1.0,3.0,95,0.00,,,0.00,meteohub,2013-12-04 12:47:00,
2013-12-04 07:52:00,51.3,49.8,30.05,ESE,120,0.0,3.0,95,0.00,,,0.00,meteohub,2013-12-04 12:52:00,
2013-12-04 07:57:00,51.3,49.8,30.06,ESE,120,0.0,3.0,95,0.00,,,0.00,meteohub,2013-12-04 12:57:00,
2013-12-04 08:02:00,51.4,50.0,30.06,ESE,120,1.0,3.0,95,0.00,,,0.00,meteohub,2013-12-04 13:02:00,
2013-12-04 08:07:00,51.4,50.0,30.06,ESE,120,0.0,2.0,95,0.00,,,0.00,meteohub,2013-12-04 13:07:00,
2013-12-04 08:12:00,51.4,50.0,30.06,ESE,120,0.0,2.0,95,0.00,,,0.00,meteohub,2013-12-04 13:12:00,
2013-12-04 08:17:00,51.4,50.0,30.06,ESE,120,1.0,2.0,95,0.00,,,0.00,meteohub,2013-12-04 13:17:00,
2013-12-04 08:22:00,51.4,50.0,30.06,ESE,120,0.0,2.0,95,0.00,,,0.00,meteohub,2013-12-04 13:22:00,
2013-12-04 08:27:00,51.6,50.2,30.07,ESE,120,0.0,2.0,95,0.00,,,0.00,meteohub,2013-12-04 13:27:00,
2013-12-04 08:32:00,51.8,50.4,30.07,ESE,120,0.0,2.0,95,0.00,,,0.00,meteohub,2013-12-04 13:32:00,
2013-12-04 08:37:00,52.0,50.4,30.07,ESE,120,0.0,0.0,94,0.00,,,0.00,meteohub,2013-12-04 13:37:00,
2013-12-04 08:42:00,52.0,50.4,30.07,ESE,120,1.0,0.0,94,0.00,,,0.00,meteohub,2013-12-04 13:42:00,
2013-12-04 08:47:00,52.2,50.5,30.07,ESE,120,0.0,2.0,94,0.00,,,0.00,meteohub,2013-12-04 13:47:00,
2013-12-04 08:52:00,52.2,50.5,30.07,ESE,120,0.0,2.0,94,0.00,,,0.00,meteohub,2013-12-04 13:52:00,
2013-12-04 08:57:00,52.3,50.7,30.07,ESE,120,0.0,2.0,94,0.00,,,0.00,meteohub,2013-12-04 13:57:00,
2013-12-04 09:02:00,52.3,50.7,30.07,NNW,346,0.0,0.0,94,0.00,,,0.00,meteohub,2013-12-04 14:02:00,
2013-12-04 09:07:00,52.5,50.9,30.08,NNE,26,1.0,0.0,94,0.00,,,0.00,meteohub,2013-12-04 14:07:00,
2013-12-04 09:12:00,52.9,51.3,30.08,NNE,30,0.0,2.0,94,0.00,,,0.00,meteohub,2013-12-04 14:12:00,
2013-12-04 09:17:00,53.1,51.4,30.08,NNE,32,0.0,2.0,94,0.00,,,0.00,meteohub,2013-12-04 14:17:00,
2013-12-04 09:22:00,53.1,51.1,30.08,SE,135,2.0,2.0,93,0.00,,,0.00,meteohub,2013-12-04 14:22:00,
2013-12-04 09:27:00,53.1,51.1,30.08,ESE,123,1.0,3.0,93,0.00,,,0.00,meteohub,2013-12-04 14:27:00,
2013-12-04 09:32:00,53.2,51.6,30.08,SE,131,1.0,3.0,94,0.00,,,0.00,meteohub,2013-12-04 14:32:00,
2013-12-04 09:37:00,53.4,51.8,30.08,SE,128,0.0,3.0,94,0.00,,,0.00,meteohub,2013-12-04 14:37:00,
2013-12-04 09:42:00,53.8,51.8,30.09,SE,126,0.0,3.0,93,0.00,,,0.00,meteohub,2013-12-04 14:42:00,
2013-12-04 09:47:00,53.8,51.8,30.09,ESE,119,1.0,3.0,93,0.00,,,0.00,meteohub,2013-12-04 14:47:00,
2013-12-04 09:52:00,54.0,52.0,30.09,SE,126,1.0,3.0,93,0.00,,,0.00,meteohub,2013-12-04 14:52:00,
2013-12-04 09:57:00,54.0,52.0,30.09,East,96,1.0,4.0,93,0.00,,,0.00,meteohub,2013-12-04 14:57:00,
2013-12-04 10:02:00,54.0,52.0,30.09,ESE,122,0.0,4.0,93,0.00,,,0.00,meteohub,2013-12-04 15:02:00,
2013-12-04 10:07:00,54.0,52.0,30.09,ESE,117,2.0,3.0,93,0.00,,,0.00,meteohub,2013-12-04 15:07:00,
2013-12-04 10:12:00,54.0,52.0,30.09,ESE,119,3.0,3.0,93,0.00,,,0.00,meteohub,2013-12-04 15:12:00,
2013-12-04 10:17:00,54.0,52.3,30.09,SSE,161,2.0,4.0,94,0.00,,,0.00,meteohub,2013-12-04 15:17:00,
2013-12-04 10:22:00,54.0,52.3,30.09,ESE,123,3.0,4.0,94,0.00,,,0.00,meteohub,2013-12-04 15:22:00,
2013-12-04 10:27:00,54.0,52.3,30.10,ESE,123,1.0,4.0,94,0.00,,,0.00,meteohub,2013-12-04 15:27:00,
2013-12-04 10:32:00,54.1,52.7,30.09,ESE,116,0.0,3.0,95,0.00,,,0.00,meteohub,2013-12-04 15:32:00,
2013-12-04 10:37:00,54.1,52.7,30.10,ESE,116,0.0,3.0,95,0.00,,,0.00,meteohub,2013-12-04 15:37:00,
2013-12-04 10:42:00,54.3,52.7,30.09,ESE,116,0.0,2.0,94,0.00,,,0.00,meteohub,2013-12-04 15:42:00,
2013-12-04 10:47:00,54.3,52.7,30.10,SSE,148,0.0,0.0,94,0.00,,,0.00,meteohub,2013-12-04 15:47:00,
2013-12-04 10:52:00,54.3,52.7,30.09,SE,144,0.0,0.0,94,0.00,,,0.00,meteohub,2013-12-04 15:52:00,
2013-12-04 10:57:00,54.7,53.1,30.09,SE,144,0.0,0.0,94,0.00,,,0.00,meteohub,2013-12-04 15:57:00,
2013-12-04 11:02:00,55.0,53.1,30.09,SE,144,0.0,0.0,93,0.00,,,0.00,meteohub,2013-12-04 16:02:00,
2013-12-04 11:07:00,55.2,53.2,30.09,SE,144,0.0,0.0,93,0.00,,,0.00,meteohub,2013-12-04 16:07:00,
2013-12-04 11:12:00,55.8,53.8,30.09,SE,137,0.0,0.0,93,0.00,,,0.00,meteohub,2013-12-04 16:12:00,
2013-12-04 11:17:00,55.9,53.6,30.09,South,186,0.0,2.0,92,0.00,,,0.00,meteohub,2013-12-04 16:17:00,
2013-12-04 11:22:00,56.3,54.0,30.09,SE,136,0.0,3.0,92,0.00,,,0.00,meteohub,2013-12-04 16:22:00,
2013-12-04 11:27:00,56.5,54.1,30.08,SE,136,2.0,3.0,92,0.00,,,0.00,meteohub,2013-12-04 16:27:00,
2013-12-04 11:32:00,56.7,54.1,30.08,SSE,150,0.0,3.0,91,0.00,,,0.00,meteohub,2013-12-04 16:32:00,
2013-12-04 11:37:00,56.7,54.3,30.08,SSE,157,0.0,3.0,92,0.00,,,0.00,meteohub,2013-12-04 16:37:00,
2013-12-04 11:42:00,57.0,54.5,30.08,South,170,1.0,3.0,91,0.00,,,0.00,meteohub,2013-12-04 16:42:00,
2013-12-04 11:47:00,56.8,54.3,30.08,SE,136,2.0,3.0,91,0.00,,,0.00,meteohub,2013-12-04 16:47:00,
2013-12-04 11:52:00,57.2,54.7,30.07,South,191,2.0,4.0,91,0.00,,,0.00,meteohub,2013-12-04 16:52:00,
2013-12-04 11:57:00,57.4,54.5,30.07,ESE,117,1.0,4.0,90,0.00,,,0.00,meteohub,2013-12-04 16:57:00,
2013-12-04 12:02:00,57.6,54.7,30.07,SE,130,1.0,3.0,90,0.00,,,0.00,meteohub,2013-12-04 17:02:00,
2013-12-04 12:07:00,58.8,55.2,30.07,South,183,1.0,3.0,88,0.00,,,0.00,meteohub,2013-12-04 17:07:00,
2013-12-04 12:12:00,59.2,55.4,30.06,WNW,286,3.0,3.0,87,0.00,,,0.00,meteohub,2013-12-04 17:12:00,
2013-12-04 12:17:00,59.2,55.4,30.06,WNW,286,1.0,3.0,87,0.00,,,0.00,meteohub,2013-12-04 17:17:00,
2013-12-04 12:22:00,59.2,55.4,30.06,SSW,198,1.0,3.0,87,0.00,,,0.00,meteohub,2013-12-04 17:22:00,
2013-12-04 12:27:00,58.8,55.0,30.06,East,101,0.0,3.0,87,0.00,,,0.00,meteohub,2013-12-04 17:27:00,
2013-12-04 12:32:00,58.8,55.0,30.06,ENE,67,2.0,3.0,87,0.00,,,0.00,meteohub,2013-12-04 17:32:00,
2013-12-04 12:37:00,58.6,54.9,30.06,ENE,71,2.0,3.0,87,0.00,,,0.00,meteohub,2013-12-04 17:37:00,
2013-12-04 12:42:00,58.8,55.0,30.06,ENE,66,1.0,3.0,87,0.00,,,0.00,meteohub,2013-12-04 17:42:00,
2013-12-04 12:47:00,58.6,55.0,30.05,ENE,59,2.0,3.0,88,0.00,,,0.00,meteohub,2013-12-04 17:47:00,
2013-12-04 12:52:00,58.8,55.2,30.05,East,96,2.0,3.0,88,0.00,,,0.00,meteohub,2013-12-04 17:52:00,
2013-12-04 12:57:00,58.6,55.0,30.05,East,98,2.0,3.0,88,0.00,,,0.00,meteohub,2013-12-04 17:57:00,
2013-12-04 13:02:00,58.8,55.0,30.05,East,96,2.0,5.0,87,0.00,,,0.00,meteohub,2013-12-04 18:02:00,
2013-12-04 13:07:00,58.6,55.0,30.05,NE,49,1.0,5.0,88,0.00,,,0.00,meteohub,2013-12-04 18:07:00,
2013-12-04 13:12:00,58.6,55.0,30.05,East,85,1.0,3.0,88,0.00,,,0.00,meteohub,2013-12-04 18:12:00,
2013-12-04 13:17:00,59.4,55.4,30.04,East,83,2.0,3.0,87,0.00,,,0.00,meteohub,2013-12-04 18:17:00,
2013-12-04 13:22:00,59.2,55.4,30.04,East,101,1.0,5.0,87,0.00,,,0.00,meteohub,2013-12-04 18:22:00,
2013-12-04 13:27:00,59.2,55.4,30.04,NE,34,0.0,5.0,87,0.00,,,0.00,meteohub,2013-12-04 18:27:00,
2013-12-04 13:32:00,59.5,55.4,30.04,ENE,64,1.0,5.0,86,0.00,,,0.00,meteohub,2013-12-04 18:32:00,
2013-12-04 13:37:00,59.5,55.4,30.03,ENE,65,0.0,3.0,86,0.00,,,0.00,meteohub,2013-12-04 18:37:00,
2013-12-04 13:42:00,59.7,55.6,30.03,SE,135,3.0,3.0,86,0.00,,,0.00,meteohub,2013-12-04 18:42:00,
2013-12-04 13:47:00,59.4,55.2,30.03,SE,138,1.0,4.0,86,0.00,,,0.00,meteohub,2013-12-04 18:47:00,
2013-12-04 13:52:00,59.4,55.4,30.03,ESE,115,3.0,4.0,87,0.00,,,0.00,meteohub,2013-12-04 18:52:00,
2013-12-04 13:57:00,59.5,55.4,30.03,ESE,116,2.0,4.0,86,0.00,,,0.00,meteohub,2013-12-04 18:57:00,
2013-12-04 14:02:00,59.5,55.4,30.03,ESE,121,1.0,7.0,86,0.00,,,0.00,meteohub,2013-12-04 19:02:00,
2013-12-04 14:07:00,59.7,55.8,30.02,East,88,3.0,7.0,87,0.00,,,0.00,meteohub,2013-12-04 19:07:00,
2013-12-04 14:12:00,60.1,55.9,30.02,SE,125,3.0,7.0,86,0.00,,,0.00,meteohub,2013-12-04 19:12:00,
2013-12-04 14:17:00,60.3,56.1,30.02,SE,128,1.0,5.0,86,0.00,,,0.00,meteohub,2013-12-04 19:17:00,
2013-12-04 14:22:00,60.3,56.1,30.02,SE,136,2.0,6.0,86,0.00,,,0.00,meteohub,2013-12-04 19:22:00,
2013-12-04 14:27:00,60.3,55.8,30.02,SSE,149,0.0,6.0,85,0.00,,,0.00,meteohub,2013-12-04 19:27:00,
2013-12-04 14:32:00,60.3,55.8,30.02,ESE,103,2.0,6.0,85,0.00,,,0.00,meteohub,2013-12-04 19:32:00,
2013-12-04 14:37:00,60.6,56.1,30.02,ESE,106,1.0,4.0,85,0.00,,,0.00,meteohub,2013-12-04 19:37:00,
2013-12-04 14:42:00,60.6,55.8,30.02,SE,126,2.0,4.0,84,0.00,,,0.00,meteohub,2013-12-04 19:42:00,
2013-12-04 14:47:00,60.6,56.1,30.02,ESE,120,2.0,4.0,85,0.00,,,0.00,meteohub,2013-12-04 19:47:00,
2013-12-04 14:52:00,60.6,55.8,30.02,SE,138,2.0,4.0,84,0.00,,,0.00,meteohub,2013-12-04 19:52:00,
2013-12-04 14:57:00,60.6,56.1,30.02,East,90,1.0,4.0,85,0.00,,,0.00,meteohub,2013-12-04 19:57:00,
2013-12-04 15:02:00,60.6,56.1,30.02,SE,127,3.0,4.0,85,0.00,,,0.00,meteohub,2013-12-04 20:02:00,
2013-12-04 15:07:00,60.6,55.8,30.02,SSE,150,1.0,4.0,84,0.00,,,0.00,meteohub,2013-12-04 20:07:00,
2013-12-04 15:12:00,60.6,55.8,30.02,SE,126,2.0,4.0,84,0.00,,,0.00,meteohub,2013-12-04 20:12:00,
2013-12-04 15:17:00,60.6,55.8,30.02,ESE,118,4.0,5.0,84,0.00,,,0.00,meteohub,2013-12-04 20:17:00,
2013-12-04 15:22:00,60.4,55.6,30.02,SSE,165,2.0,7.0,84,0.00,,,0.00,meteohub,2013-12-04 20:22:00,
2013-12-04 15:27:00,60.6,56.1,30.03,SE,130,1.0,7.0,85,0.00,,,0.00,meteohub,2013-12-04 20:27:00,
2013-12-04 15:32:00,60.4,55.9,30.03,SSE,148,0.0,7.0,85,0.00,,,0.00,meteohub,2013-12-04 20:32:00,
2013-12-04 15:37:00,60.4,55.9,30.03,SSE,148,0.0,4.0,85,0.00,,,0.00,meteohub,2013-12-04 20:37:00,
2013-12-04 15:42:00,60.4,55.9,30.03,SSE,148,0.0,3.0,85,0.00,,,0.00,meteohub,2013-12-04 20:42:00,
2013-12-04 15:47:00,60.4,55.9,30.03,SSE,148,0.0,2.0,85,0.00,,,0.00,meteohub,2013-12-04 20:47:00,
2013-12-04 15:52:00,60.6,56.1,30.03,SSE,148,0.0,1.0,85,0.00,,,0.00,meteohub,2013-12-04 20:52:00,
2013-12-04 15:57:00,60.6,56.1,30.04,SSE,148,0.0,0.0,85,0.00,,,0.00,meteohub,2013-12-04 20:57:00,
2013-12-04 16:02:00,60.6,56.1,30.03,ESE,117,2.0,2.0,85,0.00,,,0.00,meteohub,2013-12-04 21:02:00,
2013-12-04 16:07:00,60.6,56.1,30.04,ESE,117,1.0,3.0,85,0.00,,,0.00,meteohub,2013-12-04 21:07:00,
2013-12-04 16:12:00,60.6,56.1,30.04,ESE,111,2.0,3.0,85,0.00,,,0.00,meteohub,2013-12-04 21:12:00,
2013-12-04 16:17:00,60.3,56.1,30.04,ESE,113,3.0,4.0,86,0.00,,,0.00,meteohub,2013-12-04 21:17:00,
2013-12-04 16:22:00,60.1,56.1,30.04,ESE,116,2.0,4.0,87,0.00,,,0.00,meteohub,2013-12-04 21:22:00,
2013-12-04 16:27:00,59.7,55.8,30.04,East,80,1.0,3.0,87,0.00,,,0.00,meteohub,2013-12-04 21:27:00,
2013-12-04 16:32:00,59.7,56.1,30.04,ESE,110,2.0,3.0,88,0.00,,,0.00,meteohub,2013-12-04 21:32:00,
2013-12-04 16:37:00,59.5,55.9,30.04,ESE,111,2.0,3.0,88,0.00,,,0.00,meteohub,2013-12-04 21:37:00,
2013-12-04 16:42:00,59.5,55.9,30.04,ESE,112,1.0,3.0,88,0.00,,,0.00,meteohub,2013-12-04 21:42:00,
2013-12-04 16:47:00,59.5,55.9,30.04,ESE,111,0.0,3.0,88,0.00,,,0.00,meteohub,2013-12-04 21:47:00,
2013-12-04 16:52:00,59.4,56.1,30.04,ESE,111,1.0,3.0,89,0.00,,,0.00,meteohub,2013-12-04 21:52:00,
2013-12-04 16:57:00,59.4,55.8,30.05,ESE,111,0.0,2.0,88,0.00,,,0.00,meteohub,2013-12-04 21:57:00,
2013-12-04 17:02:00,59.4,56.1,30.05,ESE,111,0.0,2.0,89,0.00,,,0.00,meteohub,2013-12-04 22:02:00,
2013-12-04 17:07:00,59.4,56.1,30.05,ESE,111,0.0,2.0,89,0.00,,,0.00,meteohub,2013-12-04 22:07:00,
2013-12-04 17:12:00,59.2,55.9,30.05,ESE,111,0.0,0.0,89,0.00,,,0.00,meteohub,2013-12-04 22:12:00,
2013-12-04 17:17:00,59.2,55.9,30.05,ESE,111,0.0,0.0,89,0.00,,,0.00,meteohub,2013-12-04 22:17:00,
2013-12-04 17:22:00,59.2,55.9,30.05,ESE,111,0.0,0.0,89,0.00,,,0.00,meteohub,2013-12-04 22:22:00,
2013-12-04 17:27:00,59.0,56.1,30.05,ESE,111,0.0,0.0,90,0.00,,,0.00,meteohub,2013-12-04 22:27:00,
2013-12-04 17:32:00,58.8,55.9,30.05,East,95,0.0,0.0,90,0.00,,,0.00,meteohub,2013-12-04 22:32:00,
2013-12-04 17:37:00,58.8,55.9,30.05,East,94,2.0,3.0,90,0.00,,,0.00,meteohub,2013-12-04 22:37:00,
2013-12-04 17:42:00,58.8,55.9,30.06,East,93,1.0,3.0,90,0.00,,,0.00,meteohub,2013-12-04 22:42:00,
2013-12-04 17:47:00,58.8,55.9,30.06,East,98,1.0,3.0,90,0.00,,,0.00,meteohub,2013-12-04 22:47:00,
2013-12-04 17:52:00,58.6,55.8,30.06,ESE,111,0.0,2.0,90,0.00,,,0.00,meteohub,2013-12-04 22:52:00,
2013-12-04 17:57:00,58.6,55.8,30.06,ESE,111,0.0,2.0,90,0.00,,,0.00,meteohub,2013-12-04 22:57:00,
2013-12-04 18:02:00,58.6,55.8,30.06,ESE,111,0.0,2.0,90,0.00,,,0.00,meteohub,2013-12-04 23:02:00,
2013-12-04 18:07:00,58.6,55.8,30.06,ESE,111,0.0,2.0,90,0.00,,,0.00,meteohub,2013-12-04 23:07:00,
2013-12-04 18:12:00,58.6,55.8,30.07,ESE,111,0.0,1.0,90,0.00,,,0.00,meteohub,2013-12-04 23:12:00,
2013-12-04 18:17:00,58.6,55.8,30.07,ESE,111,0.0,0.0,90,0.00,,,0.00,meteohub,2013-12-04 23:17:00,
2013-12-04 18:22:00,58.6,55.8,30.07,ESE,111,0.0,0.0,90,0.00,,,0.00,meteohub,2013-12-04 23:22:00,
2013-12-04 18:27:00,58.6,55.9,30.07,ESE,111,0.0,0.0,91,0.00,,,0.00,meteohub,2013-12-04 23:27:00,
2013-12-04 18:32:00,58.5,55.8,30.07,ESE,111,0.0,0.0,91,0.00,,,0.00,meteohub,2013-12-04 23:32:00,
2013-12-04 18:37:00,58.5,55.8,30.07,ESE,111,0.0,0.0,91,0.00,,,0.00,meteohub,2013-12-04 23:37:00,
2013-12-04 18:42:00,58.5,55.8,30.07,ESE,111,0.0,0.0,91,0.00,,,0.00,meteohub,2013-12-04 23:42:00,
2013-12-04 18:47:00,58.5,55.8,30.07,ESE,111,0.0,0.0,91,0.00,,,0.00,meteohub,2013-12-04 23:47:00,
2013-12-04 18:52:00,58.5,55.8,30.07,ESE,123,1.0,2.0,91,0.00,,,0.00,meteohub,2013-12-04 23:52:00,
2013-12-04 18:57:00,58.6,55.9,30.07,South,180,2.0,2.0,91,0.00,,,0.00,meteohub,2013-12-04 23:57:00,
2013-12-04 19:02:00,58.6,55.9,30.08,South,180,0.0,3.0,91,0.00,,,0.00,meteohub,2013-12-05 00:02:00,
2013-12-04 19:07:00,58.6,55.9,30.08,South,180,0.0,3.0,91,0.00,,,0.00,meteohub,2013-12-05 00:07:00,
2013-12-04 19:12:00,58.8,56.1,30.08,South,171,3.0,3.0,91,0.00,,,0.00,meteohub,2013-12-05 00:12:00,
2013-12-04 19:17:00,58.8,56.1,30.07,ESE,116,3.0,3.0,91,0.00,,,0.00,meteohub,2013-12-05 00:17:00,
2013-12-04 19:22:00,58.6,55.9,30.08,SE,134,0.0,5.0,91,0.00,,,0.00,meteohub,2013-12-05 00:22:00,
2013-12-04 19:27:00,58.6,55.9,30.08,SE,134,0.0,5.0,91,0.00,,,0.00,meteohub,2013-12-05 00:27:00,
2013-12-04 19:32:00,58.8,56.1,30.08,SE,134,2.0,5.0,91,0.00,,,0.00,meteohub,2013-12-05 00:32:00,
2013-12-04 19:37:00,58.6,55.9,30.07,ESE,115,2.0,2.0,91,0.00,,,0.00,meteohub,2013-12-05 00:37:00,
2013-12-04 19:42:00,58.6,55.9,30.07,ESE,121,1.0,3.0,91,0.00,,,0.00,meteohub,2013-12-05 00:42:00,
2013-12-04 19:47:00,58.5,56.1,30.07,ESE,116,2.0,3.0,92,0.00,,,0.00,meteohub,2013-12-05 00:47:00,
2013-12-04 19:52:00,58.3,55.9,30.07,ESE,119,2.0,3.0,92,0.00,,,0.00,meteohub,2013-12-05 00:52:00,
2013-12-04 19:58:00,58.3,55.9,30.07,ESE,113,3.0,3.0,92,0.00,,,0.00,meteohub,2013-12-05 00:58:00,
2013-12-04 20:03:00,58.1,55.8,30.07,ESE,105,2.0,5.0,92,0.00,,,0.00,meteohub,2013-12-05 01:03:00,
2013-12-04 20:08:00,57.9,55.9,30.07,ESE,112,3.0,7.0,93,0.00,,,0.00,meteohub,2013-12-05 01:08:00,
2013-12-04 20:13:00,57.9,55.9,30.07,ESE,113,2.0,7.0,93,0.00,,,0.00,meteohub,2013-12-05 01:13:00,
2013-12-04 20:18:00,57.9,55.9,30.07,ESE,120,3.0,7.0,93,0.00,,,0.00,meteohub,2013-12-05 01:18:00,
2013-12-04 20:24:00,57.7,55.8,30.06,ESE,113,2.0,4.0,93,0.00,,,0.00,meteohub,2013-12-05 01:24:00,
2013-12-04 20:29:00,57.7,55.8,30.07,ESE,114,2.0,5.0,93,0.00,,,0.00,meteohub,2013-12-05 01:29:00,
2013-12-04 20:34:00,57.6,55.8,30.06,ESE,117,3.0,5.0,94,0.00,,,0.00,meteohub,2013-12-05 01:34:00,
2013-12-04 20:39:00,57.6,55.8,30.06,SE,125,3.0,5.0,94,0.00,,,0.00,meteohub,2013-12-05 01:39:00,
2013-12-04 20:44:00,57.4,55.6,30.06,SE,128,3.0,5.0,94,0.00,,,0.00,meteohub,2013-12-05 01:44:00,
2013-12-04 20:50:00,57.4,55.6,30.07,SE,130,1.0,5.0,94,0.00,,,0.00,meteohub,2013-12-05 01:50:00,
2013-12-04 20:55:00,57.4,55.6,30.07,SE,130,2.0,4.0,94,0.00,,,0.00,meteohub,2013-12-05 01:55:00,
2013-12-04 21:00:00,57.4,55.6,30.07,SE,124,2.0,3.0,94,0.00,,,0.00,meteohub,2013-12-05 02:00:00,
2013-12-04 21:05:00,57.2,55.8,30.07,SE,124,1.0,3.0,95,0.00,,,0.00,meteohub,2013-12-05 02:05:00,
2013-12-04 21:11:00,57.2,55.8,30.08,SE,125,0.0,3.0,95,0.00,,,0.00,meteohub,2013-12-05 02:11:00,
2013-12-04 21:16:00,57.2,55.8,30.08,SE,125,2.0,3.0,95,0.00,,,0.00,meteohub,2013-12-05 02:16:00,
2013-12-04 21:21:00,57.2,55.8,30.07,ESE,121,2.0,3.0,95,0.00,,,0.00,meteohub,2013-12-05 02:21:00,
2013-12-04 21:26:00,57.0,55.6,30.07,SE,129,2.0,3.0,95,0.00,,,0.00,meteohub,2013-12-05 02:26:00,
2013-12-04 21:31:00,57.0,55.6,30.08,SE,124,3.0,4.0,95,0.00,,,0.00,meteohub,2013-12-05 02:31:00,
2013-12-04 21:36:00,56.8,55.4,30.08,ESE,121,2.0,4.0,95,0.00,,,0.00,meteohub,2013-12-05 02:36:00,
2013-12-04 21:42:00,56.8,55.4,30.08,ESE,117,1.0,4.0,95,0.00,,,0.00,meteohub,2013-12-05 02:42:00,
2013-12-04 21:47:00,56.8,55.4,30.08,ESE,107,2.0,4.0,95,0.00,,,0.00,meteohub,2013-12-05 02:47:00,
2013-12-04 21:52:00,56.8,55.4,30.08,SE,130,3.0,3.0,95,0.00,,,0.00,meteohub,2013-12-05 02:52:00,
2013-12-04 21:57:00,56.8,55.8,30.08,SE,125,2.0,3.0,96,0.00,,,0.00,meteohub,2013-12-05 02:57:00,
2013-12-04 22:02:00,56.8,55.8,30.08,SE,124,2.0,3.0,96,0.00,,,0.00,meteohub,2013-12-05 03:02:00,
2013-12-04 22:07:00,56.8,55.8,30.09,ESE,120,1.0,3.0,96,0.00,,,0.00,meteohub,2013-12-05 03:07:00,
2013-12-04 22:12:00,56.8,55.8,30.09,SE,142,1.0,3.0,96,0.00,,,0.00,meteohub,2013-12-05 03:12:00,
2013-12-04 22:17:00,56.8,55.8,30.09,South,175,1.0,3.0,96,0.00,,,0.00,meteohub,2013-12-05 03:17:00,
2013-12-04 22:22:00,56.8,55.8,30.09,SSE,154,1.0,3.0,96,0.00,,,0.00,meteohub,2013-12-05 03:22:00,
2013-12-04 22:27:00,57.0,55.9,30.09,SSE,148,4.0,4.0,96,0.00,,,0.00,meteohub,2013-12-05 03:27:00,
2013-12-04 22:32:00,57.0,55.9,30.09,SSE,153,2.0,5.0,96,0.00,,,0.00,meteohub,2013-12-05 03:32:00,
2013-12-04 22:37:00,57.0,55.9,30.10,SE,146,1.0,5.0,96,0.00,,,0.00,meteohub,2013-12-05 03:37:00,
2013-12-04 22:42:00,57.0,55.9,30.09,SE,145,3.0,5.0,96,0.00,,,0.00,meteohub,2013-12-05 03:42:00,
2013-12-04 22:47:00,56.8,55.8,30.09,ESE,121,2.0,5.0,96,0.00,,,0.00,meteohub,2013-12-05 03:47:00,
2013-12-04 22:52:00,56.7,55.6,30.09,SSE,149,2.0,5.0,96,0.00,,,0.00,meteohub,2013-12-05 03:52:00,
2013-12-04 22:57:00,56.7,55.6,30.09,SE,143,2.0,5.0,96,0.00,,,0.00,meteohub,2013-12-05 03:57:00,
2013-12-04 23:02:00,56.7,55.6,30.09,SSE,165,2.0,5.0,96,0.00,,,0.00,meteohub,2013-12-05 04:02:00,
2013-12-04 23:07:00,56.5,55.4,30.09,SE,131,0.0,5.0,96,0.00,,,0.00,meteohub,2013-12-05 04:07:00,
2013-12-04 23:12:00,56.5,55.6,30.10,ESE,103,2.0,4.0,97,0.00,,,0.00,meteohub,2013-12-05 04:12:00,
2013-12-04 23:17:00,56.3,55.4,30.10,SE,128,0.0,4.0,97,0.00,,,0.00,meteohub,2013-12-05 04:17:00,
2013-12-04 23:22:00,56.3,55.4,30.10,SSE,150,0.0,3.0,97,0.00,,,0.00,meteohub,2013-12-05 04:22:00,
2013-12-04 23:27:00,56.3,55.4,30.10,South,173,0.0,3.0,97,0.00,,,0.00,meteohub,2013-12-05 04:27:00,
2013-12-04 23:32:00,56.3,55.4,30.10,SE,144,0.0,2.0,97,0.00,,,0.00,meteohub,2013-12-05 04:32:00,
2013-12-04 23:37:00,56.3,55.4,30.10,SE,139,0.0,0.0,97,0.00,,,0.00,meteohub,2013-12-05 04:37:00,
2013-12-04 23:42:00,56.1,55.2,30.10,SE,139,0.0,0.0,97,0.00,,,0.00,meteohub,2013-12-05 04:42:00,
2013-12-04 23:47:00,56.1,55.2,30.10,SE,138,0.0,0.0,97,0.00,,,0.00,meteohub,2013-12-05 04:47:00,
2013-12-04 23:52:00,56.1,55.2,30.10,ESE,121,2.0,0.0,97,0.00,,,0.00,meteohub,2013-12-05 04:52:00,
2013-12-04 23:57:00,56.3,55.4,30.10,SE,126,0.0,4.0,97,0.00,,,0.00,meteohub,2013-12-05 04:57:00,